Location: La Tine
(46.4708°N, 7.0525°E)
Time: 10:05:30
(UTC+00:00)

YAOGAN 1 - Pass Details

Date: 18 September 2020
Orbit: 618 x 620 km, 97.9° (Epoch: 24 October)

Event Time Altitude Azimuth Distance (km) Brightness Sun altitude
Rises 18:21:23 0° 174° (S) 2,884 5.8 -8.5°
Reaches altitude 10° 18:23:35 10° 178° (S) 1,983 5.0 -8.8°
Maximum altitude 18:27:52 62° 259° (W) 704 3.2 -9.6°
Drops below altitude 10° 18:32:10 10° 340° (NNW) 1,999 5.6 -10.3°
Sets 18:34:24 0° 344° (NNW) 2,910 6.4 -10.6°
